This is the latest recevied weather packets stored in our database for station/object K5WNG. If no packets are shown the sender has not sent any weather packets the latest 10 day(s).
| Time | Temp. | Humidity | Pressure | Rain* | Wind** | Luminosity | Snow |
|---|---|---|---|---|---|---|---|
| 1777576217 | 17.22° C | 99% | 1012.6 hPa | 10.16 mm | - | 276 W/m² | - |
| 1777575017 | 17.22° C | 99% | 1013.1 hPa | 4.32 mm | - | 10 W/m² | - |
| 1777573821 | 17.22° C | 98% | 1013.2 hPa | 0.25 mm | - | 11 W/m² | - |
| 1777573218 | 17.78° C | 98% | 1012.7 hPa | 0 mm | - | 26 W/m² | - |
| 1777572921 | 17.78° C | 97% | 1012.4 hPa | 0 mm | - | 49 W/m² | - |
| 1777572618 | 17.78° C | 97% | 1012.1 hPa | 0 mm | - | 66 W/m² | - |
| 1777571721 | 17.78° C | 97% | 1012.2 hPa | 0 mm | - | 95 W/m² | - |
| 1777570521 | 18.33° C | 97% | 1012.3 hPa | 1.27 mm | - | 182 W/m² | - |
| 1777570219 | 18.33° C | 97% | 1012.2 hPa | 3.3 mm | - | 253 W/m² | - |
| 1777569921 | 17.78° C | 97% | 1012.3 hPa | 6.6 mm | - | 316 W/m² | - |
| 1777569319 | 17.78° C | 97% | 1012.8 hPa | 11.94 mm | - | 226 W/m² | - |
| 1777568719 | 18.33° C | 97% | 1013.2 hPa | 13.72 mm | - | 156 W/m² | - |
| 1777568419 | 18.33° C | 97% | 1013.2 hPa | 14.22 mm | - | 140 W/m² | - |
| 1777568119 | 18.33° C | 98% | 1013.1 hPa | 14.22 mm | - | 328 W/m² | - |
| 1777567819 | 17.78° C | 99% | 1013.1 hPa | 14.22 mm | - | 640 W/m² | - |
| 1777567219 | 17.22° C | 99% | 1013.1 hPa | 13.97 mm | - | 239 W/m² | - |
| 1777566922 | 17.22° C | 98% | 1013.7 hPa | 12.95 mm | - | 156 W/m² | - |
| 1777566622 | 17.22° C | 98% | 1014.3 hPa | 10.92 mm | - | 87 W/m² | - |
| 1777566023 | 17.78° C | 96% | 1014.6 hPa | 5.33 mm | - | 16 W/m² | - |
| 1777565724 | 17.78° C | 95% | 1014 hPa | 2.29 mm | - | 22 W/m² | - |
| 1777565423 | 17.78° C | 95% | 1013.4 hPa | 1.27 mm | - | 37 W/m² | - |
| 1777565123 | 17.78° C | 94% | 1013 hPa | 0.51 mm | - | 72 W/m² | - |
| 1777564820 | 17.78° C | 93% | 1013.3 hPa | 0 mm | - | 60 W/m² | - |
| 1777564220 | 18.33° C | 92% | 1013 hPa | 0 mm | - | 60 W/m² | - |
| 1777563320 | 18.33° C | 91% | 1012.7 hPa | 0 mm | - | 192 W/m² | - |
* Rain latest hour (hover to see other rain measurements)
** Current wind speed in m/s (hover to see current wind gust speed)